This is the latest recevied weather packets stored in our database for station/object F8BMG-Wx. If no packets are shown the sender has not sent any weather packets the latest 10 day(s).
| Time | Temp. | Humidity | Pressure | Rain* | Wind** | Luminosity | Snow |
|---|---|---|---|---|---|---|---|
| 1778078554 | 16.11° C | 99% | 1012.2 hPa | 0 mm | - | - | - |
| 1778078250 | 16.67° C | 99% | 1012.2 hPa | 0 mm | - | - | - |
| 1778077946 | 16.67° C | 99% | 1012.2 hPa | 0 mm | - | - | - |
| 1778077642 | 16.11° C | 99% | 1012.1 hPa | 0 mm | - | - | - |
| 1778077339 | 16.67° C | 99% | 1012.1 hPa | 0 mm | - | - | - |
| 1778077041 | 17.22° C | 99% | 1012 hPa | 0 mm | - | - | - |
| 1778076731 | 16.11° C | 99% | 1012 hPa | 0 mm | - | - | - |
| 1778076426 | 16.11° C | 99% | 1012.1 hPa | 0 mm | - | - | - |
| 1778076122 | 16.11° C | 99% | 1012.1 hPa | 0 mm | - | - | - |
| 1778075819 | 16.11° C | 99% | 1012.2 hPa | 0 mm | - | - | - |
| 1778075515 | 16.11° C | 99% | 1012.2 hPa | 0 mm | - | - | - |
| 1778075217 | 16.11° C | 99% | 1012.2 hPa | 0 mm | - | - | - |
| 1778074906 | 16.11° C | 99% | 1012 hPa | 0 mm | - | - | - |
| 1778074601 | 16.67° C | 99% | 1012.1 hPa | 0 mm | - | - | - |
| 1778074298 | 16.11° C | 99% | 1012 hPa | 0 mm | - | - | - |
| 1778073994 | 16.11° C | 99% | 1012.1 hPa | 0 mm | - | - | - |
| 1778073691 | 15° C | 99% | 1012.1 hPa | 0 mm | - | - | - |
| 1778073393 | 14.44° C | 99% | 1012.2 hPa | 0 mm | - | - | - |
| 1778073081 | 14.44° C | 99% | 1012.2 hPa | 0 mm | - | - | - |
| 1778072778 | 14.44° C | 99% | 1012.3 hPa | 0 mm | - | - | - |
| 1778072474 | 15° C | 99% | 1012.2 hPa | 0 mm | - | - | - |
| 1778072170 | 15.56° C | 99% | 1012.3 hPa | 0 mm | - | - | - |
| 1778071867 | 16.11° C | 99% | 1012.1 hPa | 0 mm | - | - | - |
| 1778071569 | 16.67° C | 99% | 1012 hPa | 0 mm | - | - | - |
| 1778071257 | 16.11° C | 99% | 1012 hPa | 0 mm | - | - | - |
* Rain latest hour (hover to see other rain measurements)
** Current wind speed in m/s (hover to see current wind gust speed)